This is the latest recevied weather packets stored in our database for station/object KE0PRS. If no packets are shown the sender has not sent any weather packets the latest 1 day(s).
| Time | Temp. | Humidity | Pressure | Rain* | Wind** | Luminosity | Snow |
|---|---|---|---|---|---|---|---|
| 1777994962 | 10.56° C | 60% | 1013.3 hPa | 0 mm | 0.89 m/s, 309° | 399 W/m² | - |
| 1777994659 | 10° C | 65% | 1013.2 hPa | 0 mm | 1.79 m/s, 286° | 298 W/m² | - |
| 1777994359 | 9.44° C | 65% | 1013.3 hPa | 0 mm | 1.34 m/s, 90° | 242 W/m² | - |
| 1777994056 | 9.44° C | 66% | 1013.5 hPa | 0 mm | 0.89 m/s, 99° | 145 W/m² | - |
| 1777993753 | 8.89° C | 68% | 1013.5 hPa | 0 mm | 1.34 m/s, 359° | 108 W/m² | - |
| 1777993450 | 8.89° C | 69% | 1013.5 hPa | 0 mm | 1.34 m/s, 9° | 139 W/m² | - |
| 1777993150 | 8.89° C | 68% | 1013.5 hPa | 0 mm | 0.89 m/s, 11° | 160 W/m² | - |
| 1777992848 | 9.44° C | 64% | 1013.4 hPa | 0 mm | 2.68 m/s, 97° | 143 W/m² | - |
| 1777992546 | 10° C | 60% | 1013.2 hPa | 0 mm | 2.68 m/s, 8° | 121 W/m² | - |
| 1777992244 | 10° C | 54% | 1013.4 hPa | 0 mm | 0.89 m/s, 121° | 77 W/m² | - |
| 1777991941 | 10.56° C | 53% | 1013.4 hPa | 0 mm | 0.45 m/s, 85° | 54 W/m² | - |
| 1777991638 | 10.56° C | 53% | 1013.3 hPa | 0 mm | 1.79 m/s, 25° | 47 W/m² | - |
| 1777991335 | 10.56° C | 52% | 1013.2 hPa | 0 mm | 2.68 m/s, 33° | 41 W/m² | - |
| 1777991033 | 10.56° C | 52% | 1013.2 hPa | 0 mm | 1.79 m/s, 26° | 51 W/m² | - |
| 1777990730 | 10.56° C | 52% | 1013.3 hPa | 0 mm | 2.68 m/s, 73° | 56 W/m² | - |
| 1777990427 | 10.56° C | 52% | 1013 hPa | 0 mm | 1.79 m/s, 14° | 92 W/m² | - |
| 1777990123 | 10.56° C | 52% | 1012.9 hPa | 0 mm | 0.89 m/s, 119° | 103 W/m² | - |
| 1777989820 | 10.56° C | 52% | 1012.9 hPa | 0 mm | 0.89 m/s, 75° | 72 W/m² | - |
| 1777989518 | 10.56° C | 53% | 1012.7 hPa | 0 mm | 1.34 m/s, 140° | 73 W/m² | - |
| 1777989213 | 10.56° C | 52% | 1012.7 hPa | 0 mm | 2.24 m/s, 91° | 66 W/m² | - |
| 1777988910 | 10.56° C | 53% | 1012.7 hPa | 0 mm | 0.45 m/s, 151° | 63 W/m² | - |
| 1777988607 | 10.56° C | 53% | 1012.6 hPa | 0 mm | 1.34 m/s, 105° | 38 W/m² | - |
| 1777988303 | 10.56° C | 53% | 1012.5 hPa | 0 mm | 0.45 m/s, 14° | 42 W/m² | - |
| 1777988000 | 10.56° C | 54% | 1012.5 hPa | 0 mm | 0.89 m/s, 125° | 62 W/m² | - |
| 1777987696 | 10.56° C | 53% | 1012 hPa | 0 mm | 1.34 m/s, 114° | 28 W/m² | - |
* Rain latest hour (hover to see other rain measurements)
** Current wind speed in m/s (hover to see current wind gust speed)